Location: Kalberh�ni
(46.4610°N, 7.2453°E)
Time: 01:24:45
(UTC+00:00)

Cosmos 1844 - Pass Details

Date: 20 June 2021
Orbit: 824 x 867 km, 70.9° (Epoch: 25 July)

Event Time Altitude Azimuth Distance (km) Brightness Sun altitude
Rises 20:22:56 0° 333° (NNW) 3,372 8.6 -8.0°
Reaches altitude 10° 20:25:22 10° 334° (NNW) 2,437 7.5 -8.3°
Maximum altitude 20:30:58 85° 63° (ENE) 840 3.7 -8.9°
Enters shadow 20:36:21 11° 153° (SSE) 2,355 5.4 -9.5°
